EW8360 Weather Reports


time (UTC)temp
C
wind
direction
speed
KPH
gust
KPH
rain 1hr
cm
rain 24hr
cm
rain mn
cm
humidity
%
barometer
mb
20260505062030 15 279 3.2 14.5 0.00 0.00 0.00 86 1013.4
20260505061528 15 261 3.2 12.9 0.00 0.00 0.00 85 1013.5
20260505061031 16 287 1.6 12.9 0.00 0.00 0.00 83 1013.4
20260505060543 16 222 4.8 8.0 0.00 0.00 0.00 75 1013.4
20260505060031 16 217 3.2 8.0 0.00 0.00 0.00 74 1013.5
20260505055755 16 252 1.6 4.8 0.00 0.00 0.00 74 1013.5
20260505055028 16 254 0.0 8.0 0.00 0.00 0.00 74 1013.5
20260505054529 16 242 4.8 8.0 0.00 0.00 0.00 74 1013.6
20260505054029 16 250 1.6 8.0 0.00 0.00 0.00 73 1013.7
20260505053529 16 260 1.6 11.3 0.00 0.00 0.00 73 1013.7
20260505053028 16 229 4.8 11.3 0.00 0.00 0.00 73 1013.7
20260505052527 16 243 4.8 11.3 0.00 0.00 0.00 73 1013.8
20260505052030 16 229 6.4 11.3 0.00 0.00 0.00 73 1013.8
20260505051747 16 224 3.2 9.7 0.00 0.00 0.00 73 1013.9
20260505051026 16 225 6.4 9.7 0.00 0.00 0.00 73 1013.8
20260505050526 16 233 4.8 9.7 0.00 0.00 0.00 73 1013.9
20260505041539 16 217 9.7 12.9 0.00 0.00 0.00 71 1014.1
20260505041028 16 223 4.8 12.9 0.00 0.00 0.00 72 1014.0
20260505040526 16 223 3.2 12.9 0.00 0.00 0.00 72 1014.0
20260505040028 16 210 8.0 12.9 0.00 0.00 0.00 72 1014.0
20260505035527 16 219 4.8 11.3 0.00 0.00 0.00 72 1013.9
20260505035025 16 251 4.8 12.9 0.00 0.00 0.00 72 1014.0
20260505034525 16 262 6.4 12.9 0.00 0.00 0.00 72 1013.9
20260505034027 16 245 8.0 12.9 0.00 0.00 0.00 71 1013.8
20260505033746 16 248 8.0 12.9 0.00 0.00 0.00 71 1013.8
20260505033024 16 262 3.2 11.3 0.00 0.00 0.00 70 1013.7
20260505032539 16 256 3.2 12.9 0.00 0.00 0.00 70 1013.7
20260505032025 16 232 9.7 12.9 0.00 0.00 0.00 70 1013.7
20260505031525 16 224 6.4 11.3 0.00 0.00 0.00 71 1013.7
20260505031028 16 205 6.4 9.7 0.00 0.00 0.00 72 1013.5
20260505030525 16 231 1.6 9.7 0.00 0.00 0.00 72 1013.5
20260505030024 16 254 1.6 11.3 0.00 0.00 0.00 71 1013.6
20260505025525 16 259 6.4 11.3 0.00 0.00 0.00 72 1013.6
20260505025024 15 238 4.8 11.3 0.00 0.00 0.00 72 1013.5
20260505024524 15 251 3.2 11.3 0.00 0.00 0.00 73 1013.4
20260505024244 16 242 1.6 11.3 0.00 0.00 0.00 73 1013.3
20260505023745 16 254 1.6 12.9 0.00 0.00 0.00 73 1013.3
20260505023247 16 256 3.2 12.9 0.00 0.00 0.00 73 1013.4
20260505022524 16 294 8.0 12.9 0.00 0.00 0.00 73 1013.4
20260505022023 16 258 3.2 12.9 0.00 0.00 0.00 73 1013.4
20260505021524 16 307 4.8 12.9 0.00 0.00 0.00 73 1013.4
20260505021025 16 271 4.8 20.9 0.00 0.00 0.00 72 1013.5
20260505020523 17 229 8.0 20.9 0.00 0.00 0.00 73 1013.4
20260505020242 17 248 6.4 16.1 0.00 0.00 0.00 72 1013.5
20260505015524 17 289 12.9 16.1 0.00 0.00 0.00 68 1013.5
20260505015026 17 272 8.0 14.5 0.00 0.00 0.00 68 1013.6
20260505014523 17 333 6.4 12.9 0.00 0.00 0.00 68 1013.4
20260505013524 16 246 4.8 16.1 0.00 0.00 0.00 67 1013.4
20260505013246 16 345 8.0 19.3 0.00 0.00 0.00 71 1013.5
20260505012524 17 329 8.0 19.3 0.00 0.00 0.00 72 1013.7
20260505012246 17 266 9.7 16.1 0.00 0.00 0.00 70 1013.8
20260505011523 17 263 4.8 20.9 0.00 0.00 0.00 70 1013.7
20260505011252 17 262 8.0 24.1 0.00 0.00 0.00 68 1013.6
20260505010522 17 265 4.8 24.1 0.00 0.00 0.00 68 1013.7
20260505010244 18 299 6.4 16.1 0.00 0.00 0.00 68 1013.7
20260505005745 17 10 6.4 16.1 0.00 0.00 0.00 67 1013.6
20260505005022 17 299 6.4 20.9 0.00 0.00 0.00 67 1013.7
20260505004521 17 340 4.8 20.9 0.00 0.00 0.00 66 1013.8
20260505004021 18 266 8.0 16.1 0.00 0.00 0.00 67 1013.8
20260505003523 18 308 4.8 14.5 0.00 0.00 0.00 67 1013.8
20260505003023 18 7 8.0 14.5 0.00 0.00 0.00 67 1013.8
20260505002520 18 0 8.0 16.1 0.00 0.00 0.00 67 1013.8
20260505002021 18 355 8.0 16.1 0.00 0.00 0.00 64 1013.9
20260505001750 18 293 8.0 19.3 0.00 0.00 0.00 64 1013.9
20260505000520 18 275 4.8 14.5 0.00 0.00 0.00 62 1013.9
20260505000022 18 230 1.6 14.5 0.00 0.00 0.00 63 1014.0
20260504235521 18 249 1.6 14.5 0.00 0.00 0.00 63 1013.9
20260504235022 18 278 4.8 19.3 0.00 0.00 0.00 61 1014.0
20260504234520 18 278 9.7 22.5 0.00 0.00 0.00 63 1014.0
20260504234020 18 247 4.8 22.5 0.00 0.00 0.00 65 1014.0
20260504233741 18 267 11.3 16.1 0.00 0.00 0.00 64 1014.0
20260504233022 18 277 9.7 16.1 0.00 0.00 0.00 63 1014.0
20260504232519 18 297 4.8 16.1 0.00 0.00 0.00 63 1013.9
20260504232019 18 229 9.7 19.3 0.00 0.00 0.00 64 1013.9
20260504231521 18 300 4.8 19.3 0.00 0.00 0.00 64 1013.8
20260504231020 18 218 3.2 19.3 0.00 0.00 0.00 63 1013.9
20260504230020 18 282 8.0 24.1 0.00 0.00 0.00 64 1013.9
20260504225519 18 345 16.1 20.9 0.00 0.00 0.00 65 1013.8
20260504225020 18 319 12.9 19.3 0.00 0.00 0.00 64 1014.0
20260504224520 18 289 8.0 19.3 0.00 0.00 0.00 60 1013.9
20260504224019 18 263 3.2 19.3 0.00 0.00 0.00 60 1013.9
20260504223518 18 355 6.4 19.3 0.00 0.00 0.00 64 1013.9
20260504223020 18 294 11.3 19.3 0.00 0.00 0.00 63 1013.9
20260504222519 18 267 8.0 16.1 0.00 0.00 0.00 67 1014.0
20260504222018 18 326 6.4 19.3 0.00 0.00 0.00 64 1014.1
20260504221518 18 291 9.7 24.1 0.00 0.00 0.00 67 1014.2
20260504221019 18 338 12.9 24.1 0.00 0.00 0.00 65 1014.2
20260504220519 18 353 6.4 22.5 0.00 0.00 0.00 66 1014.4
20260504220019 18 240 6.4 25.7 0.00 0.00 0.00 63 1014.5
20260504215517 18 311 14.5 25.7 0.00 0.00 0.00 67 1014.4
20260504215019 18 353 12.9 22.5 0.00 0.00 0.00 65 1014.4
20260504214518 18 251 4.8 22.5 0.00 0.00 0.00 66 1014.5
20260504214018 18 299 9.7 22.5 0.00 0.00 0.00 67 1014.6
20260504213517 18 359 9.7 22.5 0.00 0.00 0.00 65 1014.6
20260504213019 18 253 8.0 22.5 0.00 0.00 0.00 65 1014.5
20260504212739 18 358 9.7 22.5 0.00 0.00 0.00 66 1014.5
20260504212018 18 247 6.4 22.5 0.00 0.00 0.00 64 1014.6
20260504211517 18 355 12.9 22.5 0.00 0.00 0.00 66 1014.6
20260504211018 18 276 8.0 25.7 0.00 0.00 0.00 64 1014.7
20260504210518 18 248 6.4 27.4 0.00 0.00 0.00 66 1014.7
20260504210243 18 349 16.1 27.4 0.00 0.00 0.00 66 1014.6
20260504205516 18 263 6.4 25.7 0.00 0.00 0.00 65 1014.7
20260504205017 18 286 9.7 25.7 0.00 0.00 0.00 65 1014.7
20260504204518 18 346 11.3 25.7 0.00 0.00 0.00 68 1014.6
20260504204016 18 230 8.0 20.9 0.00 0.00 0.00 67 1014.7
20260504203733 18 262 8.0 19.3 0.00 0.00 0.00 67 1014.7
20260504203016 18 341 11.3 19.3 0.00 0.00 0.00 67 1014.7
20260504202517 18 254 1.6 22.5 0.00 0.00 0.00 67 1014.5
20260504202016 18 341 8.0 22.5 0.00 0.00 0.00 65 1014.5
20260504201515 18 309 8.0 20.9 0.00 0.00 0.00 66 1014.6
20260504201017 18 258 4.8 20.9 0.00 0.00 0.00 65 1014.6
20260504200517 18 310 9.7 25.7 0.00 0.00 0.00 64 1014.6
20260504200017 17 333 8.0 25.7 0.00 0.00 0.00 65 1014.7
20260504195516 17 324 19.3 24.1 0.00 0.00 0.00 64 1014.6
20260504195015 17 330 8.0 24.1 0.00 0.00 0.00 64 1014.7
20260504194737 17 341 11.3 25.7 0.00 0.00 0.00 67 1014.8
20260504194016 17 342 14.5 25.7 0.00 0.00 0.00 69 1014.7
20260504193515 17 272 12.9 29.0 0.00 0.00 0.00 67 1014.9
20260504193239 17 359 12.9 29.0 0.00 0.00 0.00 68 1014.9
20260504192518 17 332 16.1 22.5 0.00 0.00 0.00 67 1014.9
20260504192015 17 273 12.9 22.5 0.00 0.00 0.00 66 1015.0
20260504191514 17 330 12.9 22.5 0.00 0.00 0.00 66 1015.0
20260504191015 17 331 9.7 22.5 0.00 0.00 0.00 65 1014.9
20260504190515 17 327 16.1 27.4 0.00 0.00 0.00 65 1015.0
20260504190015 17 317 9.7 24.1 0.00 0.00 0.00 65 1014.9
20260504185514 17 348 8.0 24.1 0.00 0.00 0.00 68 1015.0
20260504185014 17 266 9.7 29.0 0.00 0.00 0.00 69 1014.9
20260504184515 18 347 22.5 29.0 0.00 0.00 0.00 67 1015.0
20260504184016 18 4 12.9 22.5 0.00 0.00 0.00 66 1015.0
20260504183514 18 252 4.8 19.3 0.00 0.00 0.00 66 1015.3
20260504183014 18 316 3.2 22.5 0.00 0.00 0.00 68 1015.1
20260504182516 18 270 8.0 22.5 0.00 0.00 0.00 64 1015.2
20260504182014 18 357 6.4 14.5 0.00 0.00 0.00 63 1015.2
20260504181513 17 269 8.0 16.1 0.00 0.00 0.00 60 1015.2
20260504181014 17 302 6.4 16.1 0.00 0.00 0.00 64 1015.2
20260504180514 17 258 8.0 16.1 0.00 0.00 0.00 63 1015.2
20260504180015 17 329 8.0 14.5 0.00 0.00 0.00 65 1015.1
20260504175513 17 348 8.0 14.5 0.00 0.00 0.00 63 1015.2
20260504175014 17 323 8.0 19.3 0.00 0.00 0.00 65 1015.0
20260504174514 17 260 8.0 19.3 0.00 0.00 0.00 64 1014.9
20260504174013 17 355 4.8 19.3 0.00 0.00 0.00 65 1014.9
20260504173512 17 274 9.7 24.1 0.00 0.00 0.00 62 1015.0
20260504173012 17 252 4.8 24.1 0.00 0.00 0.00 67 1015.0
20260504172512 17 353 9.7 16.1 0.00 0.00 0.00 66 1015.0
20260504172013 17 295 8.0 16.1 0.00 0.00 0.00 65 1015.0
20260504171512 17 13 6.4 20.9 0.00 0.00 0.00 65 1014.9
20260504171011 17 293 8.0 20.9 0.00 0.00 0.00 64 1014.9
20260504170512 17 359 16.1 20.9 0.00 0.00 0.00 65 1014.7
20260504151009 15 320 3.2 9.7 0.00 0.00 0.00 69 1014.2
20260504150509 15 269 1.6 8.0 0.00 0.00 0.00 70 1014.2
20260504141009 14 274 0.0 4.8 0.00 0.00 0.00 75 1013.9
20260504140508 14 245 1.6 3.2 0.00 0.00 0.00 76 1014.0
20260504130507 14 258 0.0 3.2 0.00 0.00 0.00 76 1013.6
20260504110504 15 325 6.4 19.3 0.00 0.00 0.00 74 1013.5
20260504100504 15 334 4.8 9.7 0.00 0.00 0.00 75 1013.2
20260504081736 15 338 9.7 22.5 0.00 0.00 0.00 77 1013.8
20260504081238 15 342 16.1 19.3 0.00 0.00 0.00 77 1014.0
20260504080238 15 334 12.9 16.1 0.00 0.00 0.00 76 1014.1
20260504070237 16 274 6.4 22.5 0.00 0.00 0.00 76 1014.4